Location: Karcze
(52.0945°N, 22.4786°E)
Time: 11:09:28
(UTC+00:00)

Cosmos 1066 Rocket - Pass Details

Date: 14 July 2020
Orbit: 799 x 894 km, 81.2° (Epoch: 07 August)

Event Time Altitude Azimuth Distance (km) Brightness Sun altitude
Rises 01:03:10 0° 346° (NNW) 3,511 8.1 -9.6°
Reaches altitude 10° 01:05:37 10° 345° (NNW) 2,572 7.3 -9.4°
Maximum altitude 01:11:31 81° 260° (W) 912 4.3 -8.8°
Drops below altitude 10° 01:17:21 10° 174° (S) 2,553 6.3 -8.3°
Sets 01:19:47 0° 173° (S) 3,482 7.0 -8.1°
